Akron Canton, OH

9:18 AM EDT on May 23, 2017 (GMT -0400)
Akron-Canton Regional

Weather History for KCAK - June, 2013

Change the Weather History Date:

Tuesday, June 18, 2013

  Actual Average Record
Temperature  
Mean Temperature 68 °F 69 °F  
Max Temperature 78 °F 79 °F 96 °F (1944)
Min Temperature 57 °F 59 °F 39 °F (1950)
Degree Days  
Heating Degree Days 0 1  
Month to date heating degree days 25 41  
Since 1 June heating degree days 25 41  
Since 1 July heating degree days 5827 6142  
Cooling Degree Days 3 5  
Month to date cooling degree days 56 64  
Year to date cooling degree days 162 106  
Since 1 June cooling degree days 56 64  
Growing Degree Days 19 (Base 50)    
Moisture  
Dew Point 58 °F    
Average Humidity 72    
Maximum Humidity 87    
Minimum Humidity 57    
Precipitation  
Precipitation 0.00 in 0.13 in 2.49 in (2014)
Month to date precipitation 3.81 2.29  
Year to date precipitation 16.07 18.02  
Snow  
Snow 0.00 in 0.00 in - ()
Month to date snowfall 0.0 0.0  
Since 1 June snowfall 0.0 0.0  
Since 1 July snowfall 47.2 47.5  
Snow Depth 0.00 in    
Sea Level Pressure  
Sea Level Pressure 29.92 in    
Wind  
Wind Speed 8 mph (NE)    
Max Wind Speed 18 mph    
Max Gust Speed 23 mph    
Visibility 9 miles    
Events      
T = Trace of Precipitation, MM = Missing Value Source: NWS Daily Summary

Daily Weather History Graph

Daily Weather History Graph

Search for Another Location

Airport or City:

Trip Planner

Search our weather history database for the weather conditions in past years. The results will help you decide how hot, cold, wet, or windy it might be!

Date:

Astronomy

Jun. 18, 2013 Rise Set
Actual Time 5:53 AM EDT 9:00 PM EDT
Civil Twilight 5:19 AM EDT 9:34 PM EDT
Nautical Twilight 4:37 AM EDT 10:16 PM EDT
Astronomical Twilight 3:46 AM EDT 11:07 PM EDT
Moon 3:41 PM EDT (6/18) 2:03 AM EDT (6/18)
Length of Visible Light 16h 14m
Length of Day
15h 06m
Waxing Gibbous, 70% of the Moon is Illuminated
Jun 18
Waxing Gibbous
Jun 23
Full
Jun 30
Last Quarter
Jul 8
New
Jul 15
First Quarter

Hourly Weather History & Observations

Time (EDT) Temp. Dew Point Humidity Pressure Visibility Wind Dir Wind Speed Gust Speed Precip Events Conditions
12:51 AM 64.9 °F 61.0 °F 87% 29.90 in 8.0 mi Calm Calm - N/A   Overcast
1:51 AM 64.0 °F 60.1 °F 87% 29.90 in 8.0 mi ENE 8.1 mph - N/A   Overcast
2:51 AM 64.0 °F 59.0 °F 84% 29.89 in 10.0 mi ESE 5.8 mph - N/A   Overcast
3:51 AM 64.0 °F 57.9 °F 80% 29.88 in 10.0 mi SE 5.8 mph - N/A   Overcast
4:51 AM 63.0 °F 57.9 °F 84% 29.89 in 9.0 mi NE 4.6 mph - N/A   Overcast
5:51 AM 62.1 °F 57.9 °F 86% 29.90 in 7.0 mi ENE 5.8 mph - N/A   Overcast
6:51 AM 63.0 °F 57.9 °F 84% 29.90 in 7.0 mi ESE 3.5 mph - N/A   Overcast
7:51 AM 64.9 °F 59.0 °F 81% 29.90 in 7.0 mi East 3.5 mph - N/A   Overcast
8:51 AM 69.1 °F 60.1 °F 73% 29.89 in 8.0 mi ESE 4.6 mph - N/A   Mostly Cloudy
9:51 AM 71.1 °F 62.1 °F 73% 29.90 in 10.0 mi NE 3.5 mph - N/A   Mostly Cloudy
10:51 AM 72.0 °F 62.1 °F 71% 29.90 in 8.0 mi NE 4.6 mph - N/A   Overcast
11:51 AM 73.9 °F 64.0 °F 71% 29.91 in 8.0 mi Variable 3.5 mph - N/A   Overcast
12:38 PM 75.2 °F 62.6 °F 65% 29.93 in 10.0 mi NNE 10.4 mph - N/A   Overcast
12:51 PM 75.0 °F 63.0 °F 66% 29.91 in 10.0 mi North 10.4 mph - N/A   Overcast
1:51 PM 73.0 °F 61.0 °F 66% 29.91 in 10.0 mi NNE 11.5 mph - N/A   Overcast
2:51 PM 75.0 °F 62.1 °F 64% 29.90 in 10.0 mi ENE 9.2 mph - N/A   Mostly Cloudy
3:51 PM 75.9 °F 60.1 °F 58% 29.89 in 10.0 mi NE 9.2 mph - N/A   Mostly Cloudy
4:51 PM 75.0 °F 60.1 °F 60% 29.89 in 10.0 mi NNE 12.7 mph - N/A   Scattered Clouds
5:51 PM 75.0 °F 59.0 °F 57% 29.89 in 10.0 mi North 13.8 mph - N/A   Scattered Clouds
6:51 PM 72.0 °F 55.9 °F 57% 29.92 in 10.0 mi NNE 17.3 mph - N/A   Scattered Clouds
7:51 PM 69.1 °F 55.0 °F 61% 29.94 in 10.0 mi NE 12.7 mph - N/A   Scattered Clouds
8:51 PM 64.9 °F 53.1 °F 65% 29.96 in 10.0 mi NNE 8.1 mph - N/A   Scattered Clouds
9:51 PM 62.1 °F 53.1 °F 72% 29.99 in 10.0 mi NNE 8.1 mph - N/A   Partly Cloudy
10:51 PM 60.1 °F 50.0 °F 69% 30.01 in 10.0 mi North 9.2 mph - N/A   Partly Cloudy
11:51 PM 57.0 °F 48.9 °F 74% 30.01 in 10.0 mi NNE 8.1 mph - N/A   Partly Cloudy